Terug naar catalogus

STARLINK-35730

ActiefCommunicatieVLEO
NORAD 66273·PAYLOAD·🇺🇸 United States

Gelanceerd Oct 31, 2025 vanaf Vandenberg Space Force Base

Loading…

Volgende Passages (komende 24 uur)

TLE

VersSource: CelesTrak SupGP

Epoch: Sep 14, 2026, 14:50 UTC

1 66273C 25247J   26257.61854167 -.00080919  00000+0 -23913-2 0  2579
2 66273  53.1608  29.4352 0001256  85.2197 227.4547 15.34424787    17

Volg STARLINK-35730 in realtime met AllMySat

Download on the App Store